Hourly Data Report for July 14, 2003

SHERBROOKE A
QUEBEC

45°26'00.000" N
71°41'00.000" W
241.40 m
7028124
71610
YSC

Download Data

Hourly Data (July 2003)
Hourly Data Report for July 14, 2003
TIME
LST
Temp Definition
°C
Dew Point Definition
°C
Rel Hum Definition
%
Precip. Amount Definition
mm

Wind Dir Definition
10's deg

Wind Spd Definition
km/h
Visibility Definition
km
Stn Press Definition
kPa
Hmdx Definition


Wind Chill Definition


Weather Definition


00:00 14.6 12.7 88   23 6 15.0 99.14      
01:00 13.6 12.2 91   20 6 15.0 99.14      
02:00 11.4 10.7 95   18 4 3.2 99.17      
03:00 11.4 10.7 95   3 4 12.9 99.19      
04:00 10.0 9.6 97   10 4 15.0 99.21      
05:00 11.0 10.4 96     0 15.0 99.27      
06:00 15.0 13.5 91     0 15.0 99.33      
07:00 17.5 13.8 79   23 7 24.1 99.36     Mainly Clear
08:00 19.8 14.7 72   25 11 24.1 99.38     Mainly Clear
09:00 21.0 15.0 69   24 11 24.1 99.38 25   Mainly Clear
10:00 22.5 14.9 62   22 7 24.1 99.39 26   Mainly Clear
11:00 24.0 15.5 59   31 7 24.1 99.36 28   Mainly Clear
12:00 24.9 13.8 50   29 19 24.1 99.32 28   Mainly Clear
13:00 26.3 14.0 47   30 13 24.1 99.27 30   Mainly Clear
14:00 26.4 13.7 46   25 13 24.1 99.23 30   Mainly Clear
15:00 24.3 14.2 53   27 7 24.1 99.22 28   Mainly Clear
16:00 25.9 12.6 44   22 9 24.1 99.18 28   Mainly Clear
17:00 25.5 12.9 46   23 11 15.0 99.18 28    
18:00 24.7 12.9 48   23 9 15.0 99.17 27    
19:00 22.0 14.6 63   20 6 15.0 99.18 26    
20:00 16.4 13.7 84     0 15.0 99.22      
21:00 14.9 12.8 87   11 7 15.0 99.28      
22:00 14.0 12.8 92     0 15.0 99.27      
23:00 13.4 12.3 93     0 15.0 99.25      

Notes on Data Quality.

Legend

  • E = Estimated
  • M = Missing
  • NA = Not Available*
  • [empty] = Indicates an unobserved value
Date modified: